When you browse on this site, cookies collect data to enhance your experience and personalize the content and advertising you see.
Visit our Privacy Policy to learn more. By continuing to use the site, you agree to this use of cookies and data.
  • In United Kingdom
  • List of Countries
  • For 7 days
  • Water Temperature
  • Satellite Maps
  • Weather Map
  • Weather Widgets
  • user-avatar
    Login

    Hourly Weather Popondetta

    Today, 18 February, Monday

    Time Temperature Precipitation Wind Pressure Humidity
    00:00 +26°C° 0 mm 1 mps 747 mmHg 91%
    01:00 +26°C° 0 mm 1 mps 747 mmHg 92%
    02:00 +26°C° 0 mm 1 mps 747 mmHg 91%
    03:00 +26°C° 0 mm 1 mps 747 mmHg 90%
    04:00 +25°C° 0 mm 1 mps 747 mmHg 90%
    05:00 +26°C° 0 mm 1 mps 747 mmHg 87%
    06:00 +26°C° 0 mm 1 mps 747 mmHg 84%
    07:00 +26°C° 0 mm 1 mps 747 mmHg 82%
    08:00 +29°C° 0 mm 1 mps 747 mmHg 73%
    09:00 +31°C° 0 mm 1 mps 747 mmHg 64%
    10:00 +34°C° 0 mm 1 mps 748 mmHg 55%
    11:00 +36°C° 0.1 mm 2 mps 747 mmHg 53%
    12:00 +36°C° 0.1 mm 2 mps 747 mmHg 51%
    13:00 +37°C° 0.1 mm 3 mps 746 mmHg 49%
    14:00 +36°C° 0.1 mm 3 mps 746 mmHg 53%
    15:00 +35°C° 0.1 mm 3 mps 746 mmHg 57%
    16:00 +34°C° 0 mm 3 mps 746 mmHg 60%
    17:00 +31°C° 0.2 mm 2 mps 746 mmHg 69%
    18:00 +30°C° 0.2 mm 1 mps 746 mmHg 77%
    19:00 +28°C° 0.2 mm 1 mps 747 mmHg 85%
    20:00 +28°C° 0.2 mm 1 mps 747 mmHg 87%
    21:00 +25°C° 0.2 mm 0 mps 748 mmHg 89%
    22:00 +25°C° 0.2 mm 0 mps 748 mmHg 91%
    23:00 +24°C° 0 mm 0 mps 748 mmHg 91%

    Tomorrow, 19 February, Tuesday

    Time Temperature Precipitation Wind Pressure Humidity
    00:00 +26°C° 0 mm 1 mps 748 mmHg 92%
    01:00 +26°C° 0 mm 1 mps 747 mmHg 92%
    02:00 +26°C° 0 mm 1 mps 747 mmHg 91%
    03:00 +26°C° 0 mm 1 mps 747 mmHg 90%
    04:00 +25°C° 0 mm 1 mps 747 mmHg 89%
    05:00 +25°C° 0 mm 1 mps 747 mmHg 86%
    06:00 +26°C° 0 mm 1 mps 747 mmHg 84%
    07:00 +26°C° 0 mm 1 mps 748 mmHg 81%
    08:00 +28°C° 0 mm 1 mps 748 mmHg 71%
    09:00 +31°C° 0 mm 1 mps 748 mmHg 61%
    10:00 +34°C° 0 mm 1 mps 748 mmHg 51%
    11:00 +36°C° 0 mm 2 mps 747 mmHg 48%
    12:00 +37°C° 0 mm 2 mps 746 mmHg 45%
    13:00 +38°C° 0 mm 3 mps 746 mmHg 43%
    14:00 +37°C° 0 mm 3 mps 745 mmHg 45%
    15:00 +37°C° 0 mm 3 mps 745 mmHg 47%
    16:00 +36°C° 0 mm 3 mps 745 mmHg 49%
    17:00 +34°C° 0 mm 2 mps 745 mmHg 59%
    18:00 +31°C° 0 mm 1 mps 745 mmHg 68%
    19:00 +29°C° 0 mm 1 mps 746 mmHg 78%
    20:00 +28°C° 0 mm 1 mps 746 mmHg 80%
    21:00 +28°C° 0 mm 1 mps 747 mmHg 81%
    22:00 +25°C° 0 mm 0 mps 748 mmHg 83%
    23:00 +27°C° 0 mm 1 mps 748 mmHg 83%

    Day after tomorrow, 20 February, Wednesday

    Time Temperature Precipitation Wind Pressure Humidity
    00:00 +27°C° 0 mm 1 mps 747 mmHg 84%
    01:00 +26°C° 0 mm 1 mps 747 mmHg 84%
    02:00 +26°C° 0 mm 1 mps 747 mmHg 83%
    03:00 +26°C° 0 mm 1 mps 747 mmHg 82%
    04:00 +26°C° 0 mm 1 mps 746 mmHg 81%
    05:00 +26°C° 0 mm 1 mps 747 mmHg 79%
    06:00 +27°C° 0 mm 1 mps 747 mmHg 76%
    07:00 +27°C° 0 mm 1 mps 747 mmHg 74%
    08:00 +29°C° 0 mm 1 mps 747 mmHg 66%
    09:00 +31°C° 0 mm 2 mps 747 mmHg 59%
    10:00 +35°C° 0 mm 2 mps 747 mmHg 52%
    11:00 +36°C° 0 mm 2 mps 747 mmHg 49%
    12:00 +37°C° 0 mm 2 mps 746 mmHg 47%
    13:00 +38°C° 0 mm 3 mps 745 mmHg 45%
    14:00 +37°C° 0.1 mm 3 mps 745 mmHg 48%
    15:00 +36°C° 0.1 mm 3 mps 745 mmHg 52%
    16:00 +36°C° 0.1 mm 3 mps 744 mmHg 55%
    17:00 +34°C° 0.4 mm 2 mps 745 mmHg 63%
    18:00 +31°C° 0.4 mm 2 mps 745 mmHg 70%
    19:00 +29°C° 0.4 mm 1 mps 746 mmHg 77%
    20:00 +29°C° 0.2 mm 1 mps 746 mmHg 77%
    21:00 +28°C° 0.2 mm 1 mps 747 mmHg 77%
    22:00 +26°C° 0.2 mm 0 mps 748 mmHg 77%
    23:00 +27°C° 0 mm 1 mps 747 mmHg 77%

    21 February, Thursday

    Time Temperature Precipitation Wind Pressure Humidity
    00:00 +27°C° 0 mm 1 mps 747 mmHg 76%
    01:00 +27°C° 0 mm 1 mps 746 mmHg 75%
    02:00 +27°C° 0 mm 1 mps 746 mmHg 75%
    03:00 +26°C° 0 mm 1 mps 746 mmHg 75%
    04:00 +26°C° 0 mm 1 mps 745 mmHg 75%
    05:00 +27°C° 0 mm 1 mps 746 mmHg 74%
    06:00 +27°C° 0 mm 1 mps 746 mmHg 73%
    07:00 +27°C° 0 mm 1 mps 747 mmHg 73%
    08:00 +30°C° 0 mm 1 mps 747 mmHg 64%
    09:00 +33°C° 0 mm 1 mps 746 mmHg 55%
    10:00 +36°C° 0 mm 1 mps 746 mmHg 46%
    11:00 +38°C° 0 mm 2 mps 746 mmHg 44%
    12:00 +39°C° 0 mm 2 mps 745 mmHg 41%
    13:00 +40°C° 0 mm 3 mps 745 mmHg 38%
    14:00 +39°C° 0 mm 3 mps 744 mmHg 41%
    15:00 +38°C° 0 mm 3 mps 743 mmHg 44%
    16:00 +38°C° 0 mm 3 mps 743 mmHg 48%
    17:00 +35°C° 0.4 mm 2 mps 744 mmHg 58%
    18:00 +32°C° 0.4 mm 2 mps 744 mmHg 68%
    19:00 +29°C° 0.4 mm 1 mps 745 mmHg 78%
    20:00 +28°C° 0.8 mm 1 mps 746 mmHg 79%
    21:00 +28°C° 0.8 mm 1 mps 746 mmHg 81%
    22:00 +27°C° 0.8 mm 1 mps 747 mmHg 82%
    23:00 +27°C° 0.1 mm 1 mps 746 mmHg 80%

    22 February, Friday

    Time Temperature Precipitation Wind Pressure Humidity
    00:00 +27°C° 0.1 mm 1 mps 746 mmHg 78%
    01:00 +27°C° 0.1 mm 1 mps 746 mmHg 76%
    02:00 +26°C° 0 mm 1 mps 745 mmHg 75%
    03:00 +26°C° 0 mm 1 mps 745 mmHg 74%
    04:00 +26°C° 0 mm 1 mps 744 mmHg 73%
    05:00 +26°C° 0 mm 1 mps 745 mmHg 72%
    06:00 +26°C° 0 mm 1 mps 745 mmHg 70%
    07:00 +27°C° 0 mm 1 mps 746 mmHg 69%
    08:00 +30°C° 0 mm 1 mps 746 mmHg 59%
    09:00 +33°C° 0 mm 1 mps 746 mmHg 49%
    10:00 +37°C° 0 mm 1 mps 746 mmHg 39%
    11:00 +38°C° 0 mm 2 mps 746 mmHg 38%
    12:00 +39°C° 0 mm 2 mps 745 mmHg 36%
    13:00 +40°C° 0 mm 3 mps 745 mmHg 35%
    14:00 +38°C° 0 mm 3 mps 744 mmHg 44%
    15:00 +36°C° 0 mm 2 mps 744 mmHg 52%
    16:00 +34°C° 0 mm 2 mps 744 mmHg 61%
    17:00 +32°C° 0.6 mm 1 mps 744 mmHg 66%
    18:00 +30°C° 0.6 mm 1 mps 745 mmHg 71%
    19:00 +29°C° 0.6 mm 1 mps 746 mmHg 77%
    20:00 +29°C° 0.5 mm 1 mps 746 mmHg 77%
    21:00 +27°C° 0.5 mm 0 mps 747 mmHg 78%
    22:00 +26°C° 0.5 mm 0 mps 747 mmHg 79%
    23:00 +26°C° 0.3 mm 0 mps 747 mmHg 80%

    23 February, Saturday

    Time Temperature Precipitation Wind Pressure Humidity
    00:00 +26°C° 0.3 mm 0 mps 747 mmHg 81%
    01:00 +27°C° 0.3 mm 1 mps 746 mmHg 81%
    02:00 +27°C° 0.1 mm 1 mps 746 mmHg 82%
    03:00 +27°C° 0.1 mm 1 mps 746 mmHg 82%
    04:00 +26°C° 0.1 mm 1 mps 746 mmHg 83%
    05:00 +27°C° 0 mm 1 mps 746 mmHg 81%
    06:00 +27°C° 0 mm 1 mps 747 mmHg 80%
    07:00 +27°C° 0 mm 1 mps 747 mmHg 79%
    08:00 +30°C° 0 mm 1 mps 748 mmHg 67%
    09:00 +33°C° 0 mm 1 mps 748 mmHg 56%
    10:00 +36°C° 0 mm 1 mps 748 mmHg 44%
    11:00 +36°C° 0.2 mm 1 mps 747 mmHg 45%
    12:00 +37°C° 0.2 mm 2 mps 746 mmHg 46%
    13:00 +37°C° 0.2 mm 3 mps 746 mmHg 46%
    14:00 +37°C° 0.5 mm 2 mps 745 mmHg 49%
    15:00 +36°C° 0.5 mm 2 mps 745 mmHg 52%
    16:00 +35°C° 0.5 mm 2 mps 745 mmHg 54%
    17:00 +32°C° 1.3 mm 2 mps 745 mmHg 65%
    18:00 +30°C° 1.3 mm 1 mps 746 mmHg 75%
    19:00 +27°C° 1.3 mm 1 mps 746 mmHg 86%
    20:00 +27°C° 0.7 mm 1 mps 747 mmHg 87%
    21:00 +27°C° 0.7 mm 1 mps 747 mmHg 87%
    22:00 +27°C° 0.7 mm 1 mps 748 mmHg 88%
    23:00 +26°C° 0.3 mm 1 mps 748 mmHg 88%
    Show more